Location: Grieser Field
(39.7333°N, 81.7975°W)
Time: 07:55:04
(UTC-05:00)

MOS 1-B - Visible Passes

Search period start: 17 January 2018 00:00
Search period end: 27 January 2018 00:00
Orbit: 906 x 913 km, 99.3° (Epoch: 16 January)

Date Brightness Start Highest point End Pass type
(mag) Time Alt. Az. Time Alt. Az. Time Alt. Az.
24 Jan 6.8 04:48:51 10° N 04:48:52 10° N 04:48:52 10° N visible
25 Jan 6.7 04:54:18 10° N 04:54:27 11° N 04:54:27 11° N visible
26 Jan 6.6 04:59:47 10° N 05:00:03 11° N 05:00:03 11° N visible
